sat.trackr.live / text

‹ back to catalog

STARLINK-4622

NORAD 53648 · 2022-105A

PAYLOAD ACTIVE UNKNOWN

§ Identity

Operator
Country
US
Launch date
2022-08-31
Launch site
AFWTR
Launch vehicle
Mass (kg)
RCS (m²)

Purposes: comms

External: N2YO · Heavens-Above · Gunter

§ Orbital elements

Epoch: 2026-09-20T14:02:16.104768Z

Period
95.64 min
Inclination
97.2847°
Eccentricity
0.0002286
Mean motion
15.05654411 rev/d
Perigee alt
547.9 km
Apogee alt
551.1 km
Semi-major
6,927.6 km
B*
1.7331e-5
RAAN
137.4167°
Arg perigee
87.8702°
Mean anomaly
272.2787°
Rev number
22,256

§ Raw data

STARLINK-46221 53648U 22105A   26263.58490862  .00000194  00000+0  17331-4 0  99992 53648  97.2847 137.4167 0002286  87.8702 272.2787 15.05654411222568

JSON: /api/v1/satellites/53648 · /tle

For live sub-satellite position, see the globe view (requires WebGL).

§ Visibility from observer

Set your observer location to see the next 7 days of passes ≥ 10°. The values pass through the URL so the page stays shareable.

No JS? Fill the form by hand. The geolocation button needs JavaScript.